Theta_e
307 307 308 308 308 308 309 309 310 309 310 309 310 309 309 310 310 310 310 309 309 309 311 310 310 311 310 310 311 310 310 310 310 310 311 312 312 314 321 323 324 325 327 328 330 331 328 328 328 325 323 324 327 328 328 330 332 333 336 336 334 335 336 335 335 336 336 335 337 337 338 338 338 337 337 337 336 335 335 334 335 334 334 334 334
307 307 307 308 308 308 309 308 309 309 310 309 310 310 309 309 310 310 309 309 309 309 310 309 309 310 310 310 310 309 310 309 309 310 311 312 312 314 319 322 323 324 325 327 329 330 330 328 328 326 325 325 326 327 327 329 331 332 334 336 334 336 336 336 336 336 336 336 336 336 336 337 337 337 336 336 336 335 333 334 333 333 334 334 333
308 307 308 307 308 308 308 309 308 309 310 309 310 311 310 310 310 309 309 309 309 309 309 309 308 308 309 309 309 309 309 309 310 311 311 311 312 314 314 320 321 323 324 325 327 329 329 328 327 326 326 326 326 326 326 328 330 331 333 336 335 336 335 335 336 336 336 336 336 336 336 337 337 337 336 336 335 334 334 334 332 333 333 333 333
308 308 310 307 307 307 307 308 308 308 310 309 309 310 310 310 310 311 311 311 310 309 310 308 307 307 308 308 309 309 309 309 310 310 311 312 313 313 313 314 319 321 322 323 324 327 328 329 329 327 328 328 326 325 327 328 329 330 331 333 336 336 337 335 336 335 335 336 336 336 336 336 336 336 336 335 334 334 334 334 332 332 333 333 333
308 308 310 307 308 307 307 309 308 309 309 310 309 310 310 310 310 312 311 311 310 309 310 309 307 307 308 308 308 308 309 309 310 310 311 312 312 312 313 313 314 317 319 321 322 326 328 328 330 329 328 327 327 325 326 326 327 328 329 332 333 336 338 336 335 335 335 336 336 337 337 336 336 336 336 336 334 334 333 332 334 334 334 334 333
308 307 308 307 308 307 307 307 308 309 309 309 309 309 309 309 310 311 311 310 309 309 309 307 307 307 308 308 308 308 309 309 310 310 311 311 311 311 311 312 313 313 314 318 321 323 324 325 327 331 330 329 328 326 326 328 329 329 330 333 334 334 337 337 336 334 335 335 336 336 336 336 335 335 335 334 335 334 334 333 334 335 333 333 331
309 307 307 307 308 307 307 307 308 310 308 309 309 309 309 309 311 310 310 310 310 310 309 307 307 306 307 308 307 308 310 309 309 310 311 311 311 310 311 312 313 313 313 315 319 319 321 324 326 327 329 329 328 326 324 330 331 331 332 333 333 336 336 335 335 335 334 335 336 336 336 336 335 334 335 336 335 335 334 335 333 331 331 331 330
309 308 307 307 308 307 307 308 308 309 308 309 310 309 309 310 311 311 309 309 310 308 309 308 307 307 307 308 308 310 309 308 309 310 310 311 310 310 311 312 313 313 318 316 315 316 321 323 324 326 328 330 330 329 328 329 331 332 332 334 334 336 336 335 335 335 335 336 336 336 336 335 335 332 334 334 334 333 332 331 331 330 329 329 328
309 308 307 308 308 306 307 308 309 308 308 308 309 309 309 310 311 312 311 309 309 308 308 308 307 307 307 307 308 309 308 309 309 310 310 310 311 312 313 313 314 318 316 315 315 316 319 321 323 325 326 327 328 329 329 332 332 332 333 334 334 335 336 335 334 334 335 336 335 335 335 334 334 333 333 332 331 330 330 329 328 328 327 327 327
308 308 307 310 309 307 307 308 309 308 308 308 308 310 311 311 310 311 312 310 309 308 307 307 307 306 306 307 307 308 307 308 308 311 308 308 310 310 311 312 314 315 317 317 317 318 319 321 322 323 324 325 326 328 328 330 332 331 333 333 334 335 337 334 333 334 334 334 334 334 334 333 333 333 332 331 331 329 329 328 327 326 326 325 325
308 308 308 309 307 307 307 308 309 308 308 308 309 310 311 311 310 310 312 311 310 309 308 307 306 305 306 307 307 307 308 309 307 307 307 307 308 309 309 309 311 312 315 318 319 320 320 321 321 321 322 324 324 326 328 329 330 330 333 334 336 335 333 333 334 334 333 333 333 333 333 333 333 332 332 330 329 329 329 328 327 326 325 324 324
308 307 307 309 307 307 307 308 308 308 308 307 308 308 309 309 310 311 310 311 311 310 308 307 305 305 306 307 307 307 308 308 307 306 307 307 306 307 307 308 309 310 312 314 318 319 321 321 324 324 324 324 324 325 326 328 331 332 333 335 335 336 335 332 333 333 331 332 332 332 332 332 331 331 330 329 328 327 327 326 326 325 324 324 322
309 307 307 308 308 307 307 307 308 309 308 307 308 309 310 310 311 311 311 309 309 310 308 307 304 304 305 305 306 308 309 307 306 306 306 306 306 305 306 307 307 308 309 311 313 316 318 320 321 321 322 323 324 326 326 328 330 331 332 333 333 335 334 333 332 333 332 331 331 330 330 330 330 329 329 328 327 326 325 324 324 323 323 322 322
308 308 308 307 306 306 306 306 307 308 309 308 309 310 309 310 310 310 312 310 308 309 308 305 303 301 300 301 304 306 310 307 304 306 306 305 305 305 305 305 306 307 308 309 310 311 314 317 317 318 320 321 323 324 325 326 329 329 330 329 333 332 332 332 331 331 330 329 329 328 328 328 328 327 327 326 324 323 323 323 323 323 323 322 322
306 308 307 307 306 306 306 306 307 309 307 306 307 307 308 309 310 309 309 309 308 310 309 307 302 304 304 301 299 299 305 306 304 305 306 305 305 304 305 305 305 306 307 308 308 309 311 314 315 316 318 319 321 323 325 326 327 327 328 327 330 331 332 333 332 330 328 328 328 327 326 326 325 325 324 324 323 323 323 323 323 323 322 322 321
305 306 307 307 307 306 306 306 306 308 307 306 306 307 308 309 309 310 310 306 306 306 310 309 306 304 299 299 300 300 297 300 302 302 307 305 304 304 305 304 305 306 307 306 306 308 309 311 312 314 316 317 319 321 322 325 326 327 330 329 330 330 331 328 329 330 329 327 326 326 326 325 325 324 322 322 323 323 323 323 322 321 321 320 320
305 305 307 307 307 306 305 306 306 307 308 306 306 307 308 309 309 308 309 307 306 306 307 309 307 309 303 301 299 298 297 300 303 300 305 303 303 304 305 304 304 305 305 306 306 307 308 309 310 312 313 315 317 320 322 323 323 325 328 328 329 330 329 329 329 328 327 326 326 326 326 325 325 325 325 324 324 322 322 321 321 320 320 320 320
305 305 305 308 306 305 305 305 306 307 308 306 306 307 307 308 308 308 308 309 308 306 305 309 309 309 308 307 305 298 298 301 301 295 303 304 303 303 303 304 304 304 305 306 306 306 309 308 309 310 311 313 316 318 319 322 324 323 324 325 326 327 328 328 328 328 328 327 327 326 326 326 326 326 324 323 322 321 321 321 320 320 320 320 321
304 304 304 306 307 305 304 305 305 306 309 306 305 306 307 308 309 308 308 309 309 306 305 306 308 308 309 308 308 307 306 302 297 299 295 300 302 302 302 304 304 304 305 305 306 307 307 308 308 309 310 312 314 316 317 319 323 325 326 327 327 327 328 328 328 329 328 328 328 327 326 326 325 324 322 321 321 321 320 320 319 320 320 320 320
303 303 304 304 307 305 304 304 305 306 308 305 305 306 306 307 308 308 308 308 308 306 305 306 303 304 308 306 307 306 306 305 304 300 297 294 296 303 304 304 304 304 306 306 306 306 306 307 308 309 309 310 312 314 315 316 319 320 322 324 325 326 326 327 327 327 327 328 328 327 326 326 325 323 323 322 321 321 320 320 319 319 319 318 318
303 303 303 303 306 305 303 304 304 306 307 305 305 306 306 306 305 305 305 306 307 308 306 305 304 303 304 304 305 304 304 304 304 303 298 296 296 297 298 303 304 304 304 306 307 307 308 308 309 309 309 310 311 312 314 315 316 319 321 323 324 325 325 325 326 325 325 325 327 326 325 325 324 324 323 322 321 320 320 319 318 317 317 317 317
302 303 302 303 303 304 303 303 304 306 307 304 305 305 306 306 305 304 304 304 306 306 306 305 305 305 305 304 302 302 302 301 301 302 301 300 295 296 298 298 298 301 304 305 306 307 308 308 308 308 308 308 310 311 312 314 315 316 319 322 323 324 325 325 324 324 323 323 325 325 324 323 323 323 322 321 320 320 319 318 317 316 316 316 317
302 302 302 302 303 304 303 303 305 305 305 304 304 305 305 306 306 305 303 303 303 304 304 305 305 305 305 304 303 302 301 299 300 300 300 298 298 298 299 300 300 299 302 305 306 306 307 307 307 307 308 308 309 310 310 312 315 316 318 319 319 321 322 323 323 324 324 323 323 323 322 321 320 320 319 319 319 319 318 317 316 316 316 316 317
301 301 301 301 303 302 303 302 303 303 303 304 305 305 305 306 306 306 305 303 303 304 303 303 304 304 304 304 304 304 304 303 303 302 301 300 299 298 298 300 300 301 303 304 306 305 306 306 308 308 308 308 309 309 310 311 313 316 313 316 318 320 322 322 322 322 322 321 321 321 320 320 319 320 319 319 318 318 318 317 316 315 315 315 316
299 299 300 301 302 301 302 301 301 303 304 304 305 306 305 306 306 306 306 304 303 302 302 303 303 303 303 304 304 304 303 304 304 303 303 303 301 299 300 302 298 300 302 303 302 305 306 306 307 309 309 308 309 309 309 310 311 314 313 312 315 317 319 321 321 321 320 321 321 321 320 320 320 320 320 320 319 319 318 316 315 315 314 314 315
299 299 300 301 301 301 302 301 302 302 304 304 305 306 306 306 305 305 305 306 305 303 303 303 303 304 305 304 303 303 304 305 305 304 302 301 300 299 300 300 301 299 302 302 303 302 304 306 307 308 309 309 308 309 309 310 310 313 312 310 311 313 316 319 320 321 321 321 321 321 320 320 320 320 319 319 319 318 317 316 315 315 314 314 315
299 300 301 300 301 301 302 301 301 302 303 303 305 305 305 306 306 305 306 306 306 306 305 304 302 303 303 303 304 304 305 305 305 304 305 303 302 301 300 297 298 300 299 302 301 302 302 305 307 307 308 309 308 309 309 309 310 312 311 307 308 310 311 313 318 320 321 321 321 321 320 319 319 318 318 317 316 316 315 315 315 315 315 315 316
300 300 299 299 300 300 300 300 301 301 302 303 304 305 305 305 304 304 304 306 305 305 305 305 305 304 304 304 303 303 304 305 305 306 306 305 304 304 303 300 297 295 299 299 299 300 304 302 306 308 309 309 309 309 310 310 309 311 310 307 307 307 308 308 311 315 319 320 320 319 319 318 318 317 316 315 314 314 314 314 314 314 314 314 314
299 301 298 299 299 300 299 300 300 301 301 302 303 304 305 304 304 304 303 304 305 304 305 305 305 306 306 306 305 305 305 305 305 305 305 306 305 305 305 303 302 298 296 296 298 298 302 304 301 305 308 309 308 309 309 308 310 309 307 307 307 306 307 307 307 309 312 315 317 319 319 319 317 316 315 314 314 315 315 314 314 313 313 313 312
300 300 298 298 298 300 298 299 300 300 301 302 302 303 304 304 304 303 303 304 303 304 304 305 304 305 306 306 306 306 307 306 305 306 305 305 305 305 304 305 305 300 299 296 298 302 302 305 306 304 307 308 309 309 309 308 309 308 307 307 307 307 307 307 306 307 307 308 310 312 315 317 317 317 316 315 315 314 314 313 313 312 311 310 308
298 297 297 297 297 298 298 298 299 299 300 301 302 303 303 303 304 303 303 303 302 302 303 303 304 304 304 304 304 304 306 306 306 306 306 306 306 305 304 305 304 303 302 301 299 304 305 303 306 308 306 307 308 308 308 308 308 307 306 306 306 308 308 307 307 306 306 306 306 307 309 313 315 315 314 314 313 313 312 311 311 310 308 307 306
297 297 297 297 297 297 297 298 298 298 299 300 301 302 302 302 303 302 302 302 301 301 302 302 303 303 303 303 303 304 304 305 305 305 306 307 307 305 304 303 303 303 304 302 300 301 306 306 305 304 307 307 307 306 305 306 307 308 306 305 306 307 306 307 308 307 306 305 305 304 305 308 311 312 312 311 310 310 310 309 308 306 305 305 305
297 296 296 296 296 297 297 297 297 297 298 299 300 301 301 301 302 302 301 301 301 301 302 301 302 302 302 302 303 304 304 304 305 305 305 305 305 304 304 304 303 304 303 302 301 302 306 308 306 305 307 307 305 306 305 305 305 306 307 306 306 306 306 306 307 307 307 306 305 305 304 304 306 308 309 308 306 306 306 305 304 304 304 304 304
297 296 295 296 296 296 297 296 297 297 297 298 299 300 300 300 300 301 300 300 300 300 300 300 300 301 302 302 302 303 304 304 304 304 305 305 305 304 303 302 302 302 305 303 303 302 302 305 306 307 306 307 304 306 305 305 305 306 305 306 306 306 306 307 307 307 307 306 306 306 305 304 304 305 307 306 304 303 303 302 302 303 303 303 303
297 297 295 295 295 296 296 296 296 296 297 297 298 298 299 299 299 299 299 299 299 299 298 299 299 300 301 302 302 303 304 304 304 304 305 305 305 304 303 303 302 302 303 304 303 302 302 302 304 305 306 305 305 305 306 306 306 306 305 305 305 306 307 307 307 308 307 307 306 306 305 305 304 304 304 304 303 303 303 302 301 301 301 301 301
294 295 297 295 295 295 295 296 296 296 296 296 297 297 297 297 298 298 298 298 298 298 298 298 298 299 300 301 302 303 304 304 304 304 304 305 305 304 304 304 304 303 303 303 303 303 302 303 304 304 306 305 305 307 307 307 306 306 305 305 306 306 306 307 307 307 308 307 307 306 306 305 305 304 304 304 303 303 302 302 301 301 301 300 301
294 294 295 296 295 295 295 295 296 296 296 296 296 296 296 297 297 297 297 297 297 298 298 297 299 298 299 300 301 303 303 303 304 304 304 304 304 305 304 304 305 305 305 304 303 303 303 302 304 305 306 306 306 307 307 306 307 306 306 305 306 305 306 306 307 308 308 308 307 307 306 306 305 305 304 304 304 303 303 302 301 301 300 300 300
294 294 293 294 296 294 295 296 296 297 297 296 295 295 295 296 296 296 296 296 297 297 298 298 297 298 298 299 301 302 303 302 303 304 304 304 304 304 304 304 304 305 305 305 305 304 303 302 303 303 305 305 306 307 307 307 307 305 304 305 305 306 305 306 307 307 309 309 309 309 308 307 306 305 305 305 304 303 303 302 302 301 301 300 300
293 293 293 293 295 295 295 296 297 297 297 297 296 295 295 295 296 295 296 296 296 297 297 297 298 298 298 299 301 303 303 304 303 303 304 305 304 304 304 304 304 304 304 305 305 304 303 303 303 303 304 305 305 305 306 307 307 307 306 304 304 305 306 305 305 308 309 310 310 309 309 309 308 308 307 306 305 304 304 303 302 301 301 300 300
293 292 292 292 294 295 295 296 297 298 297 297 297 297 296 295 296 296 296 296 296 296 297 297 297 298 298 299 301 303 305 305 305 305 306 305 305 304 304 305 304 303 303 303 303 303 303 302 302 302 303 303 304 305 306 307 306 307 306 305 305 305 306 306 305 305 308 310 308 308 309 309 309 308 308 307 306 305 304 304 303 302 300 300 299
295 293 292 292 293 294 295 295 296 297 297 297 298 298 297 296 295 296 296 296 296 296 296 296 297 297 299 299 301 304 306 306 306 306 306 306 304 303 303 303 304 303 303 302 302 303 303 302 302 303 302 302 302 302 304 304 304 304 306 305 305 306 307 308 308 309 309 308 308 308 307 308 308 307 307 306 306 305 304 304 303 302 300 299 299
293 294 292 292 292 292 293 294 295 295 296 298 299 298 298 299 296 296 296 296 296 296 296 295 296 296 297 299 300 303 304 304 304 303 302 303 305 305 303 303 302 302 302 302 301 301 302 300 299 300 301 300 301 301 302 303 304 306 305 305 306 305 307 307 308 310 311 309 307 306 307 308 307 306 306 305 305 305 303 303 302 301 300 299 299
292 292 291 291 291 292 292 293 294 294 295 297 296 294 294 296 298 296 295 296 296 295 295 295 295 295 297 298 299 300 302 303 302 301 302 302 301 302 302 303 303 302 301 301 301 300 301 301 300 300 299 300 301 302 302 302 304 304 303 303 304 304 304 304 303 307 312 310 307 306 306 308 308 305 305 305 305 304 303 302 301 301 300 300 299
292 291 290 290 291 291 292 292 293 294 294 296 293 294 294 294 296 296 295 295 295 295 295 295 294 295 295 297 298 298 299 301 301 299 301 303 302 301 301 301 300 298 298 300 301 301 300 301 300 299 300 299 301 303 302 303 303 305 305 305 304 304 304 303 303 303 308 311 307 305 305 308 308 306 305 305 306 305 304 302 301 300 300 300 299
291 290 290 290 290 291 291 291 292 292 293 294 292 293 293 293 293 295 294 294 294 294 294 295 295 294 294 295 296 297 296 300 299 299 299 301 303 303 303 302 303 301 295 295 297 302 302 301 301 300 299 299 301 302 303 303 302 304 305 305 304 305 305 304 304 305 308 311 308 305 304 306 307 305 304 306 307 306 304 303 301 300 300 299 299
290 290 290 290 290 290 291 291 291 291 292 293 292 292 292 292 292 293 293 293 293 293 293 294 295 294 293 293 294 294 295 296 298 298 299 300 301 301 301 301 301 302 301 299 299 299 301 301 301 300 301 302 300 301 305 303 305 306 305 305 305 305 305 304 306 307 308 311 308 305 303 304 306 305 304 306 307 307 306 303 301 301 300 299 299
289 289 289 289 291 290 289 290 291 290 292 292 291 292 292 292 292 293 293 293 292 292 292 292 294 295 294 293 293 293 294 295 297 297 300 299 299 300 300 300 300 301 302 302 301 301 301 300 301 302 302 303 303 303 304 306 307 307 307 306 306 306 306 307 308 309 309 309 309 308 301 304 306 304 304 305 307 306 307 304 302 301 301 300 299
289 289 289 290 290 290 290 289 288 289 291 292 291 292 292 291 292 293 292 292 292 291 291 291 292 294 296 294 292 292 293 294 295 294 297 299 298 298 298 299 300 300 301 303 298 298 301 300 301 302 303 303 300 302 302 303 305 308 309 308 308 307 307 305 303 305 305 307 307 307 304 304 307 304 304 306 306 305 306 306 304 302 301 301 300
288 287 288 288 289 289 291 290 288 288 289 292 291 291 291 292 292 291 292 291 291 291 290 291 291 292 295 295 293 292 292 293 293 292 293 298 297 297 297 298 298 299 299 299 299 297 296 295 295 296 296 297 298 297 297 297 300 305 307 305 302 303 304 303 303 303 302 304 305 305 305 305 307 305 303 304 304 304 304 305 306 303 302 301 301
287 288 287 287 286 288 289 289 292 287 288 292 291 291 291 292 292 290 291 290 290 290 290 290 290 291 293 297 296 292 292 293 291 291 292 296 295 295 296 297 297 297 298 298 300 301 299 297 297 296 296 297 298 300 299 298 299 303 303 300 301 303 302 302 301 301 299 304 303 304 306 305 307 305 303 303 304 304 304 305 306 305 303 303 302
289 289 289 285 285 285 286 288 292 289 288 290 292 291 292 292 293 290 290 289 289 289 289 289 289 290 290 292 294 293 292 292 290 291 291 295 293 293 294 295 295 296 296 296 300 299 301 301 301 302 300 301 303 305 305 302 302 305 304 303 304 304 302 302 302 302 301 302 304 304 304 303 305 304 303 303 300 303 305 305 305 305 305 306 305
Wind_Speed
6 6 5 6 6 6 6 6 5 6 6 7 6 7 7 6 6 9 8 8 7 7 7 6 5 5 5 6 6 6 6 6 6 7 6 6 6 9 16 17 15 15 14 14 14 15 14 14 14 15 15 14 10 10 10 9 9 10 11 9 10 14 15 16 17 16 15 15 17 18 20 20 21 21 20 20 18 18 18 20 19 16 16 15 16
6 6 6 6 6 6 6 6 6 6 6 7 6 7 6 6 6 8 9 8 7 7 8 6 6 6 6 7 6 6 6 6 7 6 6 6 6 7 16 16 16 15 15 15 15 15 15 15 15 15 14 12 10 10 10 9 9 9 6 7 10 12 12 14 15 15 14 14 17 17 19 19 20 20 20 20 18 18 18 19 15 15 15 16 16
6 6 5 6 6 6 7 6 7 7 6 6 6 7 7 5 5 8 7 8 7 6 7 7 7 6 6 6 6 6 6 6 6 6 6 6 6 6 10 17 16 16 16 15 15 15 15 13 14 13 15 14 11 9 8 9 9 8 8 6 10 12 13 13 14 15 15 16 16 16 18 19 19 19 19 18 18 18 20 18 18 14 16 14 16
6 6 6 6 6 7 7 7 7 7 6 6 6 7 6 6 7 6 8 7 7 7 6 6 7 6 6 7 6 6 6 6 6 6 6 6 6 6 7 9 15 16 17 16 15 15 14 14 11 10 11 13 15 11 8 8 9 9 8 7 8 12 13 14 14 13 14 13 15 16 17 18 18 18 17 17 17 17 18 18 17 19 17 19 17
6 6 6 6 7 7 7 7 7 7 7 7 7 6 6 7 9 7 8 6 6 7 6 6 7 6 6 7 6 6 6 6 5 6 6 6 6 7 6 8 9 14 16 16 16 15 15 15 14 12 11 12 13 15 9 8 8 9 9 8 9 11 12 13 13 12 12 15 15 15 16 17 16 16 16 18 17 16 16 19 19 19 19 18 16
6 7 7 7 7 7 7 7 7 7 7 7 7 7 6 8 7 6 7 8 6 7 7 7 7 6 6 6 6 6 5 6 6 6 6 6 7 7 7 7 7 8 9 15 15 14 15 15 14 14 13 12 11 13 13 8 8 9 9 10 10 12 13 13 11 12 13 12 14 14 15 16 15 15 16 17 17 19 20 20 19 17 17 16 16
7 6 7 6 7 7 7 7 7 6 6 7 7 7 7 8 7 8 7 6 9 8 8 7 8 8 7 6 6 6 6 6 6 7 8 8 7 8 7 7 6 7 7 7 11 14 15 14 13 13 13 13 11 12 13 8 7 8 9 10 11 12 12 10 9 12 14 14 15 15 15 16 15 13 13 15 17 17 18 17 15 15 18 19 18
7 7 6 7 6 7 7 7 8 7 8 8 8 8 9 7 7 7 8 10 10 10 7 7 6 7 7 6 5 6 5 7 9 10 10 8 7 7 6 7 7 7 8 8 6 8 14 13 13 13 13 13 12 11 11 8 8 10 10 11 12 12 11 12 11 11 13 13 13 14 13 13 12 10 12 15 16 16 17 17 16 18 19 19 17
8 7 6 7 7 7 7 8 7 8 8 7 7 8 8 7 8 8 7 9 9 10 9 7 7 6 6 6 6 6 9 8 9 10 10 11 9 8 10 10 9 11 6 6 5 5 9 11 11 12 12 12 12 12 11 9 9 11 10 11 11 12 13 12 10 10 12 11 11 12 13 13 11 12 11 11 19 22 22 20 19 18 16 15 15
7 7 6 6 6 6 7 9 8 8 8 8 8 9 7 8 10 9 9 7 7 8 11 8 6 5 5 5 6 5 9 9 11 11 10 11 11 10 9 9 9 9 7 6 5 4 5 8 10 11 11 11 11 12 11 10 10 12 10 9 8 11 12 11 10 11 11 10 10 9 10 11 15 19 24 21 19 22 20 20 18 16 15 15 15
7 8 6 7 7 7 7 9 7 7 8 9 8 8 9 9 10 11 8 7 7 7 8 6 5 5 4 5 5 5 8 10 11 11 12 11 11 11 8 9 10 10 11 9 6 5 6 6 5 4 4 8 10 11 10 10 11 10 9 10 12 11 9 12 10 11 10 11 10 11 14 21 24 23 21 20 18 19 19 19 19 17 17 16 15
8 7 7 7 7 7 8 8 7 7 8 10 8 9 9 10 11 11 10 8 6 7 8 7 7 4 5 5 4 4 12 10 12 12 11 11 10 10 10 10 10 10 11 11 10 7 6 5 2 2 3 6 8 9 9 10 12 10 11 12 12 12 14 10 12 11 10 10 14 18 20 18 20 20 20 19 18 18 17 18 18 17 16 15 14
8 8 8 7 7 7 8 8 8 8 9 9 9 10 10 9 8 8 11 9 6 8 8 6 6 7 5 5 6 6 9 11 14 11 11 9 10 10 10 11 11 12 11 10 11 11 8 7 5 4 4 3 3 6 7 10 11 10 9 10 13 14 13 13 12 14 17 20 22 21 19 19 20 20 19 18 19 17 16 16 15 16 15 14 14
7 8 7 7 8 8 8 8 8 8 8 10 10 10 10 9 9 9 7 8 7 9 7 7 6 7 6 6 6 6 4 10 13 12 13 12 10 10 10 11 13 12 11 11 12 12 10 8 7 7 6 7 6 3 2 4 4 4 4 4 10 11 11 15 21 26 25 24 23 21 20 20 17 16 18 18 18 17 15 15 14 14 13 12 11
8 8 7 8 8 8 8 7 8 8 8 9 10 11 10 10 11 9 9 7 6 6 7 8 6 9 4 4 4 6 4 7 10 12 12 11 11 13 11 13 13 11 10 12 12 11 10 9 9 9 9 8 7 7 6 4 3 1 6 14 11 12 18 24 29 28 27 24 24 23 21 20 19 16 14 14 15 16 13 12 12 11 11 10 9
8 8 7 8 8 8 8 8 8 8 8 9 8 10 10 11 11 10 9 9 7 5 6 6 6 9 6 5 4 4 6 9 9 9 9 11 13 12 11 12 13 14 13 14 13 11 10 10 11 10 10 9 9 8 8 8 7 2 14 12 15 20 24 20 26 29 26 25 23 22 20 20 19 17 15 15 16 16 14 12 11 11 10 9 8
8 9 8 8 8 8 8 8 8 8 8 9 7 8 10 8 11 10 11 9 9 5 6 7 6 7 4 4 3 5 7 6 4 8 10 11 13 12 12 14 14 12 12 12 13 11 10 11 12 14 13 10 12 12 11 11 11 6 13 14 25 30 29 26 25 25 25 24 21 19 20 20 19 17 16 15 15 15 13 12 10 10 9 8 7
8 9 8 8 8 8 8 7 8 8 8 9 9 8 10 11 11 9 10 10 7 8 6 7 5 8 6 4 4 4 4 5 4 6 6 7 8 11 12 12 12 12 13 14 14 13 11 13 14 14 15 13 13 14 13 12 11 9 10 15 21 27 27 26 26 25 25 24 22 22 21 19 18 17 15 15 15 13 12 10 9 9 8 8 7
8 8 9 8 8 8 8 7 8 8 8 8 9 9 8 10 9 9 9 10 10 10 11 8 6 7 6 7 7 6 5 5 6 3 7 8 9 9 11 11 12 14 14 14 13 11 14 13 12 14 14 13 14 13 14 13 14 15 17 19 24 23 26 26 25 24 25 24 23 21 20 20 19 16 14 13 13 12 11 10 9 9 8 8 7
8 8 8 8 8 8 8 8 8 7 8 8 9 10 8 9 9 9 8 9 10 9 9 9 9 8 8 7 8 8 8 10 8 5 3 7 10 8 9 10 10 11 12 12 13 16 15 14 15 14 13 15 14 14 14 12 11 13 12 16 20 23 25 25 23 23 24 23 23 22 21 20 17 15 14 13 12 11 10 9 9 8 7 6 5
7 8 8 8 8 7 8 8 8 8 7 7 9 11 11 10 10 10 9 9 9 8 8 8 9 10 8 8 7 8 7 8 8 7 7 6 8 9 10 8 8 12 12 12 13 12 13 14 14 14 13 14 15 16 13 13 14 14 16 22 22 24 24 24 23 22 22 22 21 20 19 18 17 15 13 13 12 11 10 9 7 7 6 4 4
8 8 8 8 8 7 7 8 8 8 8 8 10 10 10 10 8 8 10 11 9 9 9 9 8 8 8 7 8 7 7 7 9 8 6 7 7 8 8 10 13 10 10 12 14 13 13 13 14 14 14 13 13 13 14 15 14 14 20 23 23 27 25 25 25 24 22 22 21 21 18 16 15 14 12 11 10 10 9 8 7 5 4 2 3
7 7 8 7 8 7 7 7 6 7 8 7 8 9 9 9 8 10 10 11 9 9 9 9 8 9 9 8 9 9 8 9 8 8 7 7 7 8 9 8 7 8 12 10 10 12 11 11 13 13 12 12 13 13 13 13 18 21 30 28 20 24 23 24 24 24 24 22 22 20 17 15 13 11 10 9 9 8 8 7 6 5 3 2 2
7 7 8 8 8 7 7 7 7 7 7 6 6 6 7 7 8 8 9 10 10 9 9 10 10 7 9 9 9 8 8 8 7 7 7 6 5 5 6 7 7 7 7 10 8 10 12 12 11 11 11 11 11 11 12 12 15 26 18 28 28 22 24 21 21 22 22 20 19 17 15 14 12 12 10 10 9 9 8 8 6 5 4 3 4
7 7 8 9 7 8 9 8 7 7 7 7 7 8 7 7 7 9 9 9 8 7 8 8 8 9 7 7 6 6 7 6 7 7 6 4 5 5 6 3 6 6 7 7 8 7 10 11 11 11 11 12 12 12 12 12 12 21 21 20 30 27 21 19 19 19 19 20 19 17 16 15 14 13 12 12 11 10 8 8 7 6 4 3 3
6 6 6 6 6 6 6 6 6 6 7 7 7 7 7 6 7 8 8 8 8 8 7 7 8 7 5 6 6 7 7 6 6 8 10 9 8 10 6 6 5 6 4 7 8 9 10 10 11 10 11 11 11 11 11 12 12 21 22 15 22 28 27 25 21 20 20 19 19 18 17 17 16 16 15 14 13 13 11 10 9 7 5 3 4
6 5 6 7 6 6 7 7 7 7 7 7 7 7 7 6 6 6 6 6 8 7 7 8 8 9 9 7 6 7 6 6 6 6 5 6 6 7 6 8 7 6 7 6 6 9 6 6 9 10 10 10 10 11 11 10 15 23 18 13 14 28 25 26 25 22 23 22 22 19 19 18 17 16 15 14 12 11 10 9 9 8 7 7 8
5 5 7 6 6 7 6 6 6 7 7 7 7 7 8 7 7 7 8 6 7 9 7 8 8 8 7 6 6 6 5 5 5 3 2 2 2 3 4 5 6 7 6 7 7 7 7 6 7 10 9 9 9 9 13 14 11 18 17 11 12 14 24 25 25 25 24 21 20 18 17 17 16 16 14 13 12 12 11 10 9 9 8 8 10
5 4 6 6 6 6 6 6 7 7 7 7 7 7 7 7 7 8 8 8 7 8 7 7 7 6 6 6 4 4 5 5 5 5 3 2 1 2 2 3 3 3 5 7 7 6 6 5 5 7 7 8 8 8 9 9 13 13 10 11 12 13 22 25 25 24 22 22 21 20 19 17 17 17 16 14 13 14 14 13 12 10 11 11 10
5 5 5 6 6 7 6 6 6 6 7 7 8 7 7 7 7 7 6 7 7 7 7 6 7 6 6 6 5 5 4 4 5 5 5 5 3 2 1 1 1 3 2 4 4 3 4 3 4 4 6 7 7 9 9 9 15 13 10 11 12 13 24 24 24 23 21 21 21 20 20 21 20 19 19 18 17 16 16 15 15 13 12 12 12
6 6 6 6 6 6 6 6 6 7 6 7 7 6 6 6 7 6 7 7 7 7 7 7 6 6 6 7 6 6 7 6 6 5 4 4 5 3 2 1 1 1 0 1 2 3 0 4 3 1 3 5 6 7 8 8 12 12 10 10 10 16 19 19 20 19 16 18 19 19 20 20 20 20 19 18 18 17 16 15 14 14 13 13 12
6 5 6 6 6 6 6 6 6 6 6 6 6 7 6 6 6 7 7 7 8 8 7 7 6 7 8 8 8 7 8 7 8 8 8 7 4 4 4 3 2 0 1 1 3 4 3 2 3 2 4 4 5 6 7 6 8 13 10 9 11 12 9 10 18 17 15 16 17 17 17 20 21 20 20 19 18 18 18 16 14 13 13 12 12
5 6 6 6 6 6 6 6 7 6 6 6 6 6 6 7 6 6 7 8 8 7 7 8 8 8 9 9 9 9 8 8 6 6 6 7 7 6 5 4 4 3 1 1 3 4 3 3 2 3 3 3 5 5 6 5 6 7 9 9 7 7 7 7 8 13 15 15 15 16 17 16 17 18 19 19 18 18 17 16 15 14 13 12 11
5 6 6 5 5 6 6 7 6 7 6 6 6 6 7 7 7 5 7 8 8 7 7 8 8 6 6 7 8 8 8 7 8 8 7 7 7 7 7 6 5 5 4 2 3 3 4 4 5 3 2 2 4 3 4 4 5 5 7 7 6 6 6 7 8 8 14 14 15 14 13 13 13 15 17 17 14 13 14 15 15 15 14 12 11
5 6 5 6 6 6 6 6 6 6 7 7 6 6 6 7 7 6 6 7 7 8 8 8 8 7 8 7 8 7 6 7 8 7 7 7 5 6 7 5 6 6 5 4 3 4 4 4 3 3 3 3 2 4 4 4 3 3 5 4 4 4 4 4 5 4 11 12 13 12 11 11 11 11 13 14 13 13 13 13 14 14 14 13 12
6 5 5 6 6 6 6 7 7 7 7 7 7 6 6 6 6 6 7 7 6 7 7 7 8 8 8 8 9 8 8 9 9 8 7 6 6 6 7 6 6 7 6 4 5 3 2 4 6 5 4 2 3 5 4 3 3 3 3 2 1 2 3 4 5 5 7 9 11 11 10 10 10 10 11 12 12 12 12 14 14 14 14 13 13
6 6 6 5 6 7 6 7 7 7 7 7 7 7 6 5 6 6 6 6 6 6 6 6 7 6 7 7 8 8 8 8 8 8 8 10 7 7 7 6 6 6 4 5 6 5 5 6 4 5 4 4 3 3 3 2 2 3 2 2 2 3 3 3 3 4 6 8 7 9 9 11 11 11 11 10 12 13 13 14 14 14 14 14 13
6 6 6 6 6 7 7 7 7 7 6 7 7 7 6 6 6 5 5 5 5 5 6 6 6 6 6 7 7 7 8 8 7 7 7 9 8 8 9 8 7 6 6 7 7 6 6 6 5 5 6 4 3 2 1 1 2 2 2 1 2 3 3 4 3 3 3 3 3 6 8 10 10 10 12 13 13 13 14 14 14 15 15 13 13
7 6 6 6 6 6 7 7 7 7 7 7 7 7 7 7 6 6 6 6 6 5 6 6 6 6 6 6 7 8 8 7 7 7 7 7 6 7 7 7 7 7 7 7 6 6 6 5 5 5 4 4 3 3 3 1 1 1 1 1 2 2 1 2 3 2 2 4 5 8 9 7 10 11 12 14 14 14 14 16 16 17 15 13 13
7 6 7 6 5 5 6 6 6 6 7 7 7 7 7 7 6 6 6 6 6 6 6 7 7 7 7 7 7 7 7 7 7 7 7 6 5 7 6 6 6 7 7 6 6 6 6 6 6 5 4 3 4 3 2 2 1 1 2 1 2 2 2 1 1 2 4 4 6 7 6 7 10 12 13 13 15 16 17 14 17 16 15 13 13
5 6 5 6 7 7 7 8 8 6 7 7 6 7 7 8 7 7 7 7 7 6 6 6 6 7 7 7 7 8 9 11 13 10 10 9 5 6 7 6 7 6 6 6 6 6 5 5 5 4 4 5 6 6 5 4 4 3 3 1 2 2 1 3 3 1 3 4 5 8 8 7 9 11 10 10 11 13 14 15 13 15 14 11 12
6 5 6 6 6 7 7 8 7 6 6 6 9 13 11 7 7 6 5 6 7 7 7 7 7 7 7 6 7 14 14 13 12 11 10 11 11 8 6 6 7 6 6 6 7 6 6 7 7 6 6 7 6 6 4 4 4 3 2 2 3 2 2 2 5 4 4 3 4 10 10 7 7 9 10 10 9 10 8 8 8 9 10 11 12
7 6 6 7 7 6 6 7 8 6 6 7 13 12 13 13 8 6 6 6 7 7 8 7 7 8 7 7 6 9 11 11 10 13 11 11 10 10 12 14 12 8 6 7 6 5 7 6 6 6 6 5 6 5 3 4 4 2 1 1 1 1 0 3 5 1 3 4 4 10 11 8 8 9 9 9 8 8 7 8 11 10 9 10 11
6 6 8 7 7 6 5 6 8 6 6 12 13 13 13 14 11 7 6 6 6 7 7 7 7 7 7 7 6 6 7 10 8 8 9 10 10 11 11 12 13 13 11 7 6 8 8 7 8 7 6 5 6 5 5 4 4 3 4 3 3 3 5 6 4 4 2 4 5 10 11 9 6 8 10 9 8 7 8 10 11 9 8 9 10
6 8 7 7 7 6 6 7 7 7 6 13 13 13 13 13 12 8 6 6 7 7 7 7 8 8 7 7 7 7 7 13 9 8 7 7 8 10 10 11 12 13 13 14 12 7 5 9 8 8 7 5 6 6 6 5 3 2 3 5 4 5 5 5 2 2 4 5 3 10 11 9 7 8 9 8 6 6 8 10 12 10 9 9 9
7 7 7 8 7 7 6 6 6 6 7 12 13 13 12 12 12 9 6 7 6 7 8 7 7 8 8 8 7 7 8 8 8 8 7 7 6 7 8 7 7 10 12 13 12 12 9 7 9 9 8 6 5 5 6 4 2 2 2 4 2 6 6 4 3 4 5 6 3 6 10 9 6 8 8 7 5 5 6 9 12 12 11 10 10
7 7 6 7 6 6 6 6 5 7 6 13 12 12 12 11 11 8 7 6 6 7 7 7 7 7 7 7 6 7 7 8 8 10 7 7 6 6 7 8 7 7 8 8 8 7 6 6 6 9 9 9 8 8 7 4 2 2 2 2 2 2 3 2 3 4 4 7 6 3 8 6 4 7 8 7 5 5 5 8 11 12 13 13 14
5 5 6 5 7 7 6 6 7 8 7 13 13 12 12 10 9 6 6 7 7 6 7 8 8 7 7 8 7 7 8 8 13 15 12 6 5 7 7 7 7 7 8 8 9 6 6 5 5 6 8 7 9 10 11 9 6 4 1 1 3 3 4 7 6 5 6 6 8 5 6 4 1 5 6 5 5 6 6 6 8 11 12 13 15
6 6 6 5 4 6 6 6 7 6 7 11 12 12 11 10 7 6 6 5 6 7 7 7 7 7 9 10 8 7 8 8 14 15 15 10 7 7 6 6 4 6 8 8 11 9 8 8 10 11 12 14 15 16 16 16 13 8 2 5 6 3 3 6 6 5 5 5 7 7 2 3 3 2 4 5 5 6 7 6 6 8 10 13 13
7 5 4 5 6 5 6 7 6 6 7 9 13 12 11 10 6 6 5 6 7 6 6 7 6 7 10 19 15 9 8 9 14 16 15 10 8 7 7 7 7 8 8 8 6 6 8 10 13 13 14 14 13 13 15 14 14 13 10 8 4 2 5 4 3 2 2 4 6 8 2 3 3 3 2 2 4 5 6 6 6 8 9 10 13
5 4 4 6 6 6 6 5 8 8 6 8 12 11 11 10 6 5 5 6 6 6 6 6 6 6 7 10 17 15 11 11 16 15 16 11 7 7 6 6 7 8 7 8 7 8 7 8 9 10 11 12 11 10 11 14 15 15 11 8 6 6 6 5 4 2 2 4 6 9 2 3 3 3 2 1 3 5 5 6 7 7 8 9 10
Wind_Direction
350 344 334 341 333 332 328 326 324 329 331 330 329 326 327 330 328 333 331 334 330 325 318 317 310 303 304 308 310 310 314 310 308 305 303 302 301 303 315 317 316 317 316 314 310 301 285 275 270 263 259 265 275 268 271 282 281 259 235 233 237 225 231 236 235 237 235 229 229 223 221 223 219 217 217 219 213 209 211 215 208 208 215 213 214
345 342 345 335 331 328 331 334 334 335 338 333 330 325 324 325 326 334 337 334 335 329 329 316 314 317 313 319 310 313 311 308 309 307 308 306 305 306 316 319 319 318 317 315 312 308 296 271 261 259 258 255 253 261 269 278 283 292 279 216 232 237 235 238 236 235 232 225 231 227 226 222 220 219 215 216 211 206 206 209 201 207 207 207 213
350 340 335 336 334 337 339 333 338 341 336 328 322 323 321 318 318 329 332 329 328 327 324 324 325 320 324 315 316 314 313 310 306 308 310 309 308 309 313 318 318 318 316 315 312 311 308 297 264 258 267 262 248 247 262 274 285 285 280 246 224 225 228 238 239 233 234 231 230 223 219 219 218 219 215 215 217 211 205 208 202 210 208 203 212
349 340 340 341 339 341 338 341 338 333 330 324 322 322 317 321 323 323 328 320 330 334 328 332 331 325 322 322 320 319 317 315 313 314 310 309 308 307 308 311 315 315 314 313 311 307 306 309 301 272 261 268 266 255 243 256 277 279 274 261 238 222 215 220 233 237 235 228 230 226 222 220 217 218 218 212 213 204 208 205 187 205 213 209 199
343 345 342 343 342 341 338 334 331 328 329 326 325 325 331 328 329 331 325 324 330 329 327 336 337 329 325 326 324 320 318 314 312 313 313 312 313 311 306 308 307 312 311 310 309 308 311 313 312 295 273 264 261 259 249 251 265 276 276 269 254 223 211 218 219 231 233 232 229 227 224 219 217 216 215 217 212 210 209 210 209 202 201 192 179
351 347 351 345 341 338 332 332 331 328 329 334 337 333 329 325 325 322 324 324 320 330 335 343 339 330 329 327 324 317 316 315 317 311 306 315 318 310 311 308 308 306 307 308 307 308 311 310 307 306 303 291 277 269 262 251 256 264 267 262 250 232 217 216 217 222 229 227 234 231 229 222 218 217 215 217 210 210 209 210 201 191 182 176 170
350 351 342 342 341 338 335 331 327 332 336 340 337 332 328 328 328 327 319 324 345 344 344 342 341 333 330 330 323 320 324 324 323 329 332 323 318 310 306 303 305 306 299 294 304 307 305 303 302 300 300 298 286 270 268 267 265 267 266 265 253 236 222 217 212 215 221 225 229 226 220 221 216 215 214 221 221 218 205 198 188 185 160 150 136
347 349 340 341 343 337 330 328 337 343 345 341 341 337 337 326 330 327 329 344 347 351 344 347 335 329 333 327 322 328 329 341 346 349 344 332 322 315 298 299 303 297 306 308 298 296 302 301 300 296 295 302 311 307 291 284 275 266 265 265 254 231 211 202 206 215 221 219 219 219 211 215 203 195 215 222 232 225 211 197 159 136 126 121 130
347 347 342 342 344 337 333 336 342 348 344 340 338 336 335 333 334 336 332 345 345 348 347 345 334 334 333 331 335 338 356 356 356 1 355 356 343 338 341 334 317 312 295 274 274 283 299 298 295 293 295 302 305 303 295 291 281 266 257 254 254 227 204 195 198 212 218 217 213 217 215 211 196 203 208 126 109 104 105 101 103 104 110 124 137
348 346 343 342 344 336 333 344 346 348 344 343 338 339 338 343 347 342 347 343 344 349 347 335 337 340 336 341 342 332 11 9 12 9 7 3 2 359 352 350 347 337 308 279 274 275 267 286 292 293 298 297 294 288 290 287 278 265 255 247 222 215 206 191 193 206 209 202 199 196 209 187 145 136 126 133 135 123 116 116 116 125 133 144 148
349 346 348 348 347 343 343 345 347 346 347 346 344 339 346 348 350 351 353 349 344 343 339 325 345 347 332 336 327 345 23 25 21 18 13 6 6 3 355 360 358 355 347 337 322 290 288 272 269 269 279 295 287 287 289 285 283 269 249 215 199 197 190 200 191 185 180 170 159 140 136 138 133 131 129 125 127 123 127 129 131 137 145 147 150
352 346 353 353 350 346 344 345 350 351 353 355 345 343 347 346 348 351 357 349 356 350 348 347 352 354 340 329 324 6 37 26 25 19 14 5 8 5 5 4 9 359 358 358 353 360 20 10 20 340 302 281 278 276 275 272 267 250 226 204 190 174 174 190 177 164 158 177 152 136 129 121 118 119 124 126 124 122 129 133 135 137 141 145 146
354 352 357 352 352 346 350 351 354 357 360 352 346 344 350 345 340 342 358 355 356 4 1 357 1 355 347 332 352 8 42 28 28 20 16 8 6 6 7 11 10 9 5 4 2 7 8 19 12 9 358 331 280 258 254 255 261 250 231 207 195 178 170 176 164 155 139 128 120 114 111 114 120 123 121 125 120 123 128 130 136 142 145 144 148
353 353 354 356 354 354 354 351 354 355 359 356 351 351 351 351 351 353 1 357 357 4 9 356 22 359 327 335 336 348 50 38 29 20 19 15 9 14 13 13 17 11 7 13 9 5 359 9 19 17 15 21 22 15 316 318 287 247 205 196 188 174 155 142 134 120 118 115 109 108 113 111 108 113 123 126 121 122 128 134 137 137 141 143 146
354 354 355 356 359 357 354 347 354 355 357 355 354 352 357 354 358 359 1 11 3 2 17 30 354 337 274 284 350 348 34 30 28 21 15 15 16 23 15 16 15 11 14 23 13 4 359 1 23 23 24 22 23 33 38 51 58 99 156 187 196 165 158 149 133 125 122 121 119 118 117 116 117 115 120 120 120 124 125 130 131 135 132 127 130
356 358 355 0 4 358 350 353 353 -0 1 358 352 352 354 359 4 2 6 8 359 351 25 21 5 1 14 351 310 334 5 19 14 10 10 16 20 18 18 16 15 16 24 23 13 3 358 10 26 26 25 21 22 32 40 46 59 339 171 177 144 130 123 126 121 118 116 114 117 122 120 117 115 117 117 120 122 119 124 128 123 117 114 119 128
359 1 0 0 2 359 355 352 360 0 4 1 354 353 356 358 7 5 8 8 358 348 7 13 358 22 16 351 341 21 22 346 338 18 10 18 15 15 16 22 19 17 24 19 23 6 1 18 28 33 26 20 28 32 39 40 39 29 108 116 129 120 112 109 105 107 110 111 107 108 111 111 112 112 111 112 113 116 123 124 123 122 120 115 114
2 0 3 360 2 358 355 359 3 2 8 7 2 356 359 3 11 8 7 7 2 5 356 10 11 18 22 30 44 36 1 336 356 22 358 27 16 21 21 16 20 22 24 21 14 13 4 20 27 33 29 27 30 35 34 35 41 39 80 106 105 109 112 112 113 115 115 115 117 114 107 106 105 107 112 115 116 118 118 116 115 116 117 120 115
-0 3 3 358 1 -0 360 5 6 2 7 6 8 6 356 7 8 9 8 8 12 26 31 18 14 16 6 16 35 41 23 19 28 286 12 358 17 9 16 14 16 22 23 17 13 7 20 20 22 35 29 29 31 32 33 27 40 57 66 102 110 108 113 114 116 119 117 116 112 105 107 106 106 108 107 108 110 110 113 117 115 109 112 110 108
2 2 2 357 1 3 4 10 12 1 8 7 8 8 5 6 11 14 14 18 16 24 30 28 31 15 9 16 25 32 29 35 27 28 26 27 9 354 17 12 21 23 20 14 10 24 15 17 22 27 27 31 30 34 35 23 29 46 53 68 97 110 110 109 110 110 109 109 109 113 114 113 114 113 111 111 109 108 110 108 109 112 114 109 97
3 2 0 360 5 3 4 12 12 4 10 4 8 10 12 8 11 16 17 20 17 19 31 30 34 31 15 17 21 26 25 33 24 24 30 18 19 14 1 348 23 22 12 13 18 20 20 20 21 27 27 31 30 33 31 29 33 39 51 57 72 81 86 92 95 96 99 101 104 103 102 103 106 106 107 104 103 104 104 104 98 98 92 88 96
357 359 1 3 4 3 6 13 10 4 11 4 4 6 7 14 13 18 26 28 19 19 27 30 33 30 28 24 34 23 29 30 25 12 8 22 28 4 355 3 18 3 7 8 13 15 21 21 23 25 25 26 26 30 30 30 33 38 36 48 62 70 76 81 85 87 88 91 92 91 89 91 94 96 96 97 99 99 99 93 87 91 81 79 78
354 354 5 2 5 2 6 8 15 13 10 3 7 8 7 10 10 20 31 33 21 19 22 31 31 27 25 28 37 38 38 44 31 25 25 13 4 7 352 355 5 360 2 357 9 15 18 23 27 25 23 26 27 27 30 24 35 35 36 31 51 74 70 71 75 77 74 73 72 72 75 79 84 86 88 91 92 92 89 83 75 71 73 74 76
359 358 3 1 5 356 1 12 18 9 7 352 4 359 5 9 21 24 26 30 26 23 22 29 32 33 33 31 36 34 34 33 25 28 25 16 7 352 8 338 357 13 352 352 5 18 13 18 24 23 24 31 34 35 34 28 30 39 36 35 32 52 76 69 70 71 73 74 75 76 77 79 82 83 86 88 86 83 80 81 80 77 65 60 40
4 0 354 358 357 359 9 12 9 2 358 3 8 11 10 12 18 29 29 25 19 18 22 20 26 36 35 35 35 33 38 30 32 27 18 7 12 0 358 9 16 349 354 4 2 349 19 15 13 15 23 26 28 31 34 34 33 38 37 28 36 32 53 85 87 85 83 78 76 80 82 81 81 80 78 76 73 71 69 67 65 61 43 37 28
355 1 341 345 -0 359 2 6 4 358 4 3 11 13 14 13 12 23 27 24 21 19 21 15 30 32 24 37 36 35 37 28 24 27 24 19 15 18 348 359 5 7 337 11 2 13 5 13 10 13 20 25 29 31 32 33 38 41 40 37 35 35 32 45 67 78 81 86 85 78 74 71 69 66 63 62 61 59 60 61 60 63 67 72 59
2 346 347 358 360 1 4 9 6 7 3 8 6 14 18 15 18 13 19 18 26 22 23 24 23 23 32 32 34 34 22 20 22 21 9 18 17 8 10 9 356 7 7 7 356 34 358 354 14 16 19 27 26 31 31 33 39 43 41 40 39 38 34 33 38 53 69 67 68 66 63 60 55 51 48 47 47 46 45 47 48 48 51 47 39
2 0 354 3 2 5 3 9 6 8 8 6 9 13 12 20 18 15 15 7 21 24 12 20 21 12 19 18 29 17 2 353 2 3 358 350 356 352 10 34 18 359 347 1 11 17 18 10 9 23 20 21 27 31 40 38 37 40 42 41 42 39 41 41 40 40 47 58 63 67 70 66 64 62 60 57 54 51 49 48 47 48 47 42 31
7 4 360 6 4 12 5 8 9 7 10 10 10 14 14 23 21 17 14 360 19 22 13 16 7 1 7 14 6 358 353 332 327 340 334 326 339 4 0 38 17 16 354 354 11 4 1 14 23 10 19 22 27 27 35 37 36 37 38 45 43 42 43 45 46 47 46 43 39 51 59 61 61 59 59 58 53 48 46 44 43 40 39 37 28
16 8 8 10 9 13 10 10 7 12 13 9 10 13 16 26 20 23 11 3 13 16 17 12 12 356 357 358 359 355 342 329 325 331 331 325 346 359 296 315 22 54 30 13 330 346 334 344 34 16 16 26 27 35 35 34 35 36 35 42 44 48 51 52 52 53 51 46 43 42 46 51 53 50 47 43 42 41 39 39 39 35 33 27 26
18 14 11 13 10 8 9 9 8 11 12 15 6 12 14 24 21 19 14 12 18 17 9 11 3 2 1 5 2 3 356 348 351 352 334 336 339 338 325 282 321 102 52 342 12 347 146 345 338 38 48 54 42 44 44 38 40 41 40 46 50 57 60 56 52 50 48 50 46 39 38 43 44 44 42 38 35 34 36 35 37 35 31 27 25
22 14 18 14 10 10 7 9 9 10 13 13 10 9 14 26 18 21 11 13 24 20 7 11 4 0 1 6 5 6 360 358 7 6 2 357 358 4 6 8 351 0 285 349 60 352 340 319 323 352 70 84 63 59 54 45 42 46 50 53 58 59 57 54 51 46 48 51 48 43 40 40 40 40 38 34 30 29 30 32 35 36 33 30 26
16 22 18 13 11 9 9 13 13 7 7 12 10 10 21 19 21 19 14 17 21 14 9 8 10 5 5 7 3 357 349 3 5 357 2 1 6 17 17 15 32 30 44 33 42 26 12 24 26 11 54 80 70 59 71 62 47 48 57 61 52 51 50 51 45 40 43 45 47 45 41 39 37 37 36 32 28 27 28 29 31 35 37 37 34
24 22 21 10 10 12 17 15 11 10 7 15 12 15 24 18 20 16 16 15 16 11 7 13 4 6 358 5 4 350 346 353 3 10 2 2 8 11 16 19 21 22 13 16 36 59 38 10 30 17 38 38 97 66 80 72 67 53 60 60 44 37 33 42 45 40 34 34 32 34 38 37 37 38 36 32 23 19 23 25 28 34 40 42 44
18 28 17 14 12 15 21 19 13 12 10 11 11 18 23 23 21 19 15 16 16 11 11 7 3 352 5 6 4 352 342 6 13 10 5 11 9 21 15 12 20 18 10 15 19 40 40 39 2 36 27 27 56 104 92 83 81 72 73 61 62 48 32 20 29 29 30 34 32 30 30 32 33 38 37 33 26 25 28 27 30 35 41 44 44
28 11 21 16 21 22 24 20 17 13 13 11 12 18 22 19 21 20 17 19 17 14 12 3 1 2 1 2 358 354 356 11 6 6 5 8 18 20 24 13 20 14 11 5 29 41 31 56 24 28 20 70 71 88 96 101 118 97 85 92 51 67 35 22 21 23 11 15 31 26 24 29 30 31 34 33 29 28 35 32 32 35 37 39 40
25 18 17 16 26 23 24 19 14 16 14 12 14 13 17 20 22 20 18 21 17 12 9 5 6 1 1 3 350 356 2 12 1 0 357 12 11 19 20 15 18 13 9 22 26 33 45 48 30 23 22 58 75 95 110 110 98 86 77 41 27 24 22 20 13 12 0 354 2 16 16 22 26 31 30 31 33 31 37 39 36 36 34 36 39
30 27 24 14 24 17 22 19 21 20 16 19 21 14 10 12 22 21 18 19 15 11 7 6 5 5 -0 354 357 0 10 15 355 352 354 6 9 14 13 11 12 11 20 24 29 27 47 51 37 24 23 30 50 48 38 64 85 85 52 20 15 12 10 5 11 359 350 346 356 21 25 28 28 34 32 36 35 34 37 41 41 42 40 39 38
37 29 19 23 16 23 19 18 22 17 18 21 22 16 11 11 16 20 17 16 14 11 6 5 2 4 5 357 358 5 8 5 1 355 347 4 10 18 8 4 6 15 23 27 25 32 40 45 41 35 24 26 26 36 23 35 74 36 46 21 12 7 347 350 344 351 359 9 22 30 36 27 30 36 35 40 37 36 40 41 40 41 42 40 39
37 30 22 17 8 27 22 25 17 18 21 25 21 16 14 11 9 17 16 19 16 14 6 5 2 2 359 357 357 3 6 6 6 0 358 4 6 21 7 8 12 17 24 16 21 28 33 39 40 22 27 9 15 0 346 5 42 77 47 16 46 13 26 31 33 340 358 17 37 38 29 29 34 36 39 40 37 35 36 38 39 42 35 32 35
41 32 27 25 23 25 24 25 15 11 22 21 19 14 11 12 9 9 10 17 19 18 15 7 5 1 1 1 351 3 8 13 18 24 25 31 24 23 11 11 18 19 19 21 19 24 30 34 30 19 18 33 29 15 7 17 17 345 340 4 86 43 37 64 60 57 20 30 44 48 42 33 36 36 35 34 32 28 32 32 33 37 39 36 39
40 38 34 36 35 29 24 14 18 14 17 14 12 19 22 20 12 6 8 18 17 18 18 13 9 5 358 359 356 4 5 7 8 12 26 32 43 48 32 21 16 21 20 18 22 18 28 37 32 23 34 34 18 12 3 347 333 321 25 32 93 78 74 96 76 45 24 27 48 55 45 32 33 39 37 37 32 31 26 28 31 37 42 45 44
41 38 41 40 32 24 27 21 18 18 13 11 10 21 24 22 25 20 17 14 17 20 23 18 8 -0 357 -0 4 1 2 4 357 356 9 23 32 41 50 51 45 36 13 22 23 9 30 38 32 32 33 26 18 4 358 336 2 3 29 52 128 111 107 70 67 59 40 8 41 58 47 31 31 41 41 40 32 34 29 28 20 31 46 54 54
42 46 47 38 35 24 23 29 30 16 12 7 11 19 24 24 25 26 18 22 19 23 21 19 11 7 360 358 2 6 0 3 358 345 351 4 18 29 38 48 51 45 44 38 23 29 29 37 36 29 23 17 346 10 4 1 0 14 39 61 53 74 80 70 67 60 2 0 39 61 52 36 25 39 44 38 37 33 36 32 22 22 35 53 59
57 54 40 44 36 26 31 32 28 16 12 5 10 19 23 24 24 28 25 24 27 23 22 18 16 12 5 3 -0 8 358 360 0 350 348 346 5 17 25 31 36 40 38 32 24 25 29 47 49 40 24 347 360 1 349 338 318 15 23 52 42 62 76 87 56 33 355 328 41 63 56 37 28 35 44 29 28 39 34 32 31 29 30 41 47
61 56 46 46 41 33 29 29 27 20 21 4 15 21 25 24 25 30 21 27 30 29 25 18 17 17 11 6 3 1 358 360 359 353 347 348 356 11 13 24 22 21 26 26 21 19 24 40 49 47 26 27 20 336 341 323 333 27 42 66 56 79 73 70 63 56 21 6 24 70 62 41 23 40 41 29 8 34 48 36 39 40 37 39 45
61 56 45 46 41 38 27 20 34 30 14 11 17 23 26 27 25 35 18 29 32 29 25 21 17 20 17 12 9 6 0 -0 4 354 358 356 359 13 13 18 15 18 23 17 12 9 14 17 39 52 44 38 35 25 6 344 338 21 52 84 86 90 100 158 85 38 38 19 4 30 71 61 20 47 43 31 12 31 34 43 39 46 44 44 45
58 57 45 48 38 33 30 27 36 24 5 13 16 22 26 26 32 33 26 32 32 26 25 18 16 11 22 21 14 10 6 6 1 1 7 3 18 23 17 10 9 15 22 5 2 16 21 26 33 46 54 58 54 43 32 21 8 344 78 105 61 38 89 78 59 34 36 18 22 31 88 86 24 59 49 35 26 38 32 37 33 41 47 48 50
66 55 51 42 30 30 32 33 33 17 6 9 15 21 25 24 35 28 26 32 31 30 24 18 14 11 21 27 23 12 10 13 5 12 9 14 29 21 15 20 10 21 10 354 348 356 16 35 50 46 42 39 38 39 35 29 23 14 9 55 34 11 57 82 63 47 34 15 18 6 343 68 36 56 78 46 32 37 35 31 29 27 38 46 49
72 65 58 54 39 32 31 23 31 24 4 3 16 18 26 27 38 37 25 42 34 21 18 21 17 18 19 29 29 19 15 12 12 19 14 19 29 16 15 12 21 25 3 347 342 349 1 28 37 39 34 28 29 35 36 34 36 35 44 52 3 35 64 57 64 15 304 29 24 352 324 22 348 35 75 152 64 40 30 29 29 33 32 42 44
78 69 62 53 46 31 22 18 27 33 14 5 15 16 26 28 33 31 34 46 39 19 19 18 16 18 14 20 27 24 21 17 22 22 19 21 32 21 7 24 22 23 356 334 343 356 357 12 20 18 23 20 22 27 27 26 34 40 39 29 23 50 58 47 36 10 37 27 16 351 354 11 11 30 14 132 74 58 31 26 35 36 31 36 42